Regional Weather Roundup
Issued by NWS

Home | Current Version | Previous Version | Text Only | Print | Product List | Glossary On
Versions: 1 2 3 4 5 6 7 8 9 10 11 12 13 14 15 16 17 18 19 20 21 22 23 24 25 26 27 28 29 30 31 32 33 34 35 36 37 38 39 40 41 42 43 44 45 46 47 48 49 50
000
ASUS43 KDTX 231810
RWRMI
MICHIGAN HOURLY REGIONAL WEATHER ROUNDUP
NATIONAL WEATHER SERVICE DETROIT/PONTIAC MI
ISSUED BY NATIONAL WEATHER SERVICE GRAND RAPIDS MI
200 PM EDT SUN JUL 23 2017

NOTE: "FAIR" INDICATES FEW OR NO CLOUDS BELOW 12,000 FEET WITH NO
SIGNIFICANT WEATHER AND/OR OBSTRUCTION TO VISIBILITY.

MIZ047>049-052>055-059>063-066>070-074>076-081>083-231900-
SOUTHEAST LOWER MICHIGAN

CITY           SKY/WX    TMP DP  RH WIND       PRES   REMARKS
ADRIAN         MOSUNNY   80  69  69 W7        29.79F
6HR MIN TEMP:  68; 6HR MAX TEMP:  81;

ALMA           PTSUNNY   80  66  62 SW6       29.78F
ANN ARBOR      CLOUDY    82  69  64 S5        29.78F
BAD AXE        CLOUDY    77  65  67 CALM      29.77F
6HR MIN TEMP:  66; 6HR MAX TEMP:  77;

DETROIT CITY   CLOUDY    82  66  58 N7        29.77F
6HR MIN TEMP:  71; 6HR MAX TEMP:  82;

DETROIT        CLOUDY    82  67  60 NW6       29.78F
6HR MIN TEMP:  71; 6HR MAX TEMP:  84;

FLINT          CLOUDY    78  67  68 NW7       29.79F
6HR MIN TEMP:  66; 6HR MAX TEMP:  78;

GROSSE ILE     CLOUDY    80  70  70 S9        29.77S
6HR MIN TEMP:  71; 6HR MAX TEMP:  81;

HILLSDALE      CLOUDY    81  68  65 W6        29.79F
HOWELL         PTSUNNY   78  68  69 W6        29.80F
6HR MIN TEMP:  67; 6HR MAX TEMP:  78;


CITY           SKY/WX    TMP DP  RH WIND       PRES   REMARKS
JACKSON        CLOUDY    79  68  69 NE6       29.78F
6HR MIN TEMP:  67; 6HR MAX TEMP:  82; 6HR PCP: TRACE;

LANSING        PTSUNNY   78  67  68 VRB7      29.79F
6HR MIN TEMP:  68; 6HR MAX TEMP:  79; 6HR PCP: TRACE;

MASON          PTSUNNY   76  68  76 N8        29.80F
MONROE         CLOUDY    80  69  68 W7        29.78S
6HR MIN TEMP:  69; 6HR MAX TEMP:  82;

MT. CLEMENS    PTSUNNY   77  70  78 E6        29.77F
6HR MIN TEMP:  69; 6HR MAX TEMP:  79;

PONTIAC        PTSUNNY   78  68  71 VRB3      29.78F
6HR MIN TEMP:  68; 6HR MAX TEMP:  79;

PORT HOPE        N/A     72  66  81 E13       29.76F
6HR MIN TEMP:  69; 6HR MAX TEMP:  76;

PORT HURON     CLOUDY    77  66  69 W6        29.78F
TRI CITIES     PTSUNNY   78  69  73 W8        29.78F
6HR MIN TEMP:  67; 6HR MAX TEMP:  78;

YPSILANTI      CLOUDY    84  69  60 CALM      29.79S
6HR MIN TEMP:  71; 6HR MAX TEMP:  84;

$$
MIZ043>046-050>051-056>058-064>065-071>073-077>080-231900-
SOUTHWEST LOWER MICHIGAN

CITY           SKY/WX    TMP DP  RH WIND       PRES   REMARKS
BATTLE CREEK   MOSUNNY   83  68  60 W14       29.79F
6HR MIN TEMP:  70; 6HR MAX TEMP:  84;

BENTON HARBOR  SUNNY     82  71  69 W14       29.80S
6HR MIN TEMP:  70; 6HR MAX TEMP:  83;

BIG RAPIDS     CLOUDY    78  65  62 NW10G16   29.78S
6HR MIN TEMP:  67; 6HR MAX TEMP:  79;

COLDWATER      PTSUNNY   82  71  68 W8        29.79F
6HR MIN TEMP:  69; 6HR MAX TEMP:  83;

HOLLAND        PTSUNNY   79  71  76 W10       29.80F
6HR MIN TEMP:  68; 6HR MAX TEMP:  80; 6HR PCP:  0.02;

GRAND RAPIDS   PTSUNNY   81  70  69 W10       29.78F
6HR MIN TEMP:  70; 6HR MAX TEMP:  83; 6HR PCP:  0.03;

KALAMAZOO      PTSUNNY   84  67  56 NW13      29.79F
6HR MIN TEMP:  69; 6HR MAX TEMP:  86;

MARSHALL       PTSUNNY   82  70  67 W6        29.78F
6HR MIN TEMP:  67; 6HR MAX TEMP:  83;

MOUNT PLEASANT PTSUNNY   82  64  54 SW5       29.76F
MUSKEGON       PTSUNNY   78  71  79 W12       29.79F
6HR MIN TEMP:  69; 6HR MAX TEMP:  80;

STURGIS        MOSUNNY   83  71  66 W9        29.79S
6HR MIN TEMP:  68; 6HR MAX TEMP:  84;

$$
MIZ016>042-231900-
NORTHERN LOWER MICHIGAN

CITY           SKY/WX    TMP DP  RH WIND       PRES   REMARKS
ALPENA         CLOUDY    76  68  76 E12       29.74F
6HR MIN TEMP:  67; 6HR MAX TEMP:  78; 6HR PCP: TRACE;

BEAVER ISLAND  CLOUDY    70  63  78 E3        29.78S
BELLAIRE       CLOUDY    72  66  81 W7        29.76R
6HR MIN TEMP:  68; 6HR MAX TEMP:  75;

CADILLAC       CLOUDY    78  65  65 W9        29.78F
CHARLEVOIX     LGT RAIN  69  67  94 NW8       29.79S
GAYLORD        PTSUNNY   72  65  78 SW12      29.77S THUNDER
6HR MIN TEMP:  65; 6HR MAX TEMP:  76; 6HR PCP:  0.01;

HOUGHTON LAKE  LGT RAIN  76  64  66 W8        29.77F
6HR MIN TEMP:  66; 6HR MAX TEMP:  77; 6HR PCP: TRACE;

MANISTEE       CLOUDY    72  67  84 NW14      29.78F
OSCODA         PTSUNNY   79  64  61 SW5       29.74F
6HR MIN TEMP:  65; 6HR MAX TEMP:  80;

PELLSTON       RAIN      63  61  93 NE20      29.78R VSB 1
6HR MIN TEMP:  62; 6HR MAX TEMP:  70; 6HR PCP:  0.34;

TRAVERSE CITY  TSTM      78  66  66 W17       29.73F
6HR MIN TEMP:  70; 6HR MAX TEMP:  82; 6HR PCP: TRACE;

LUDINGTON      CLOUDY    71  69  93 W5        29.79F
6HR MIN TEMP:  68; 6HR MAX TEMP:  72;

$$
MIZ007>008-015-231900-
EASTERN UPPER MICHIGAN

CITY           SKY/WX    TMP DP  RH WIND       PRES   REMARKS
KINROSS        RAIN      59  57  93 E6        29.85R
6HR MIN TEMP:  58; 6HR MAX TEMP:  64;

MACKINAC ISLAN LGT RAIN  60  60 100 E8        29.82R
6HR MIN TEMP:  60; 6HR MAX TEMP:  64; 6HR PCP:  0.86;

NEWBERRY       CLOUDY    59  58  97 NE9       29.81S
6HR MIN TEMP:  57; 6HR MAX TEMP:  64; 6HR PCP:  0.26;

S. S. MARIE    LGT RAIN  61  57  87 E9        29.83R
6HR MIN TEMP:  59; 6HR MAX TEMP:  61; 6HR PCP:  1.09;

$$
MIZ004>006-011>014-085-231900-
CENTRAL UPPER MICHIGAN

CITY           SKY/WX    TMP DP  RH WIND       PRES   REMARKS
MANISTIQUE     CLOUDY    69  64  86 NW12      29.79R
6HR MIN TEMP:  63; 6HR MAX TEMP:  69; 6HR PCP:  0.01;

ESCANABA       CLOUDY    68  62  81 N12G18    29.81S
6HR MIN TEMP:  65; 6HR MAX TEMP:  69; 6HR PCP:  0.06;

MENOMINEE      PTSUNNY   75  63  66 VRB7      29.80S
6HR MIN TEMP:  66; 6HR MAX TEMP:  77;

SAWYER-GWINN   CLOUDY    55  55 100 N13       29.87R FOG
$$
MIZ001>003-009>011-084-231900-
WESTERN UPPER MICHIGAN

CITY           SKY/WX    TMP DP  RH WIND       PRES   REMARKS
IRON MOUNTAIN  MOSUNNY   73  58  59 N17       29.84R
6HR MIN TEMP:  64; 6HR MAX TEMP:  75;

HOUGHTON       CLOUDY    62  57  83 E6        29.92R
6HR MIN TEMP:  57; 6HR MAX TEMP:  62;

COPPER HARBOR    N/A     56  52  86 CALM      29.93R
6HR MIN TEMP:  52; 6HR MAX TEMP:  58; 6HR PCP:  0.05;

IRONWOOD       FOG       57  56  96 N8        29.95R VSB 3/4
6HR MIN TEMP:  54; 6HR MAX TEMP:  57; 6HR PCP: TRACE;

$$

ABBREVIATIONS USED IN REMARKS
   TC - TEMPERATURE IN CELSIUS
  WCI - WIND CHILL INDEX
   HX - HEAT INDEX
  VSB - VISIBILITY





USA.gov is the U.S. government's official web portal to all federal, state and local government web resources and services.